DELTA 1 DEB, 7190

Orbit data source: Space-Track

DELTA 1 DEB, 7190 is space debris in SSO originally from a launch on Tue, 06 Nov 1973 UTC launched from the Air Force Western Test Range (AFWTR). Debris objects in space refer to the collection of defunct objects orbiting the Earth. Examples of debris include non-operational satellites, rocket bodies, and fragments generated from explosions, collisions, or faulty payload assembly.

Loading next visibility...
Identifier
7190, 1973-086EY
Orbit
SSO
Country
Flag of USUS
Related business
Manufacturer
Unknown
Mission
Spacecraft
Bus & Motor
Unknown
Mass
Unknown
Launch date (UTC)
1973-11-06 (52 years ago)
Launch vehicle
Unknown
Launch site
Air Force Western Test Range (AFWTR)
Object type
Payload
Rocket body
Debris
Shape & HBR
Unknown shape, 0.2 m
Radar Cross Section
Small (<0.1 m²)

Expand to show TLE details & history
Last TLE update: 7 hours ago

TLE from 7 hours ago
0 DELTA 1 DEB
1  7190U 73086EY  25299.12165115  .00002453  00000-0  21287-2 0  9996
2  7190 102.7357 148.6134 0220044 134.5145 227.4206 13.77206043547479
Epoch: 2025-10-26T02:55Z
TLE epoch observation values (Epoch: 2025-10-26T02:55:10.659Z)
Latitude
-0.00007°
Longitude
70.07661°
Altitude
1,087.884 km
Speed
7.253 km/s
True Right ascension
09h 54m 27s
True Declination
0° 00' 00"
Sunlit
Object was in daylight at epoch
Visualization orbit readout
Latitude
Unknown
Longitude
Unknown
Altitude
Unknown
Speed
Unknown
Apparent Right ascension
Unknown
Apparent Declination
Unknown
Sunlit
N/A
Visualization observer readout
Local Sidereal Time
05:14:49
Azimuth
Unknown
Elevation
Unknown
Doppler factor
Unknown
Orbital elements
Apogee altitude
1,132.977 km
Perigee altitude
809.539 km
Semi-major axis
7,349.395 km
Eccentricity
0.022
Inclination
102.7357°
RAAN
148.6134°
Arg. of periapsis
134.5145°
True anomaly
225.59816°
Mean anomaly
227.4206°
Eccentric anomaly
226.50599°
Mean motion
3.44481 °/min
Orbital period
104.5 mins
BSTAR
0.0021287
Loading maneuver chart data...
Computing Atmospheric mass density...
Loading historical data...
Loading historical data...
Loading historical data...
Loading historical data...
Loading historical data...
Loading historical data...
Loading historical data...

Documentation

Showing up to 5 results
|